Flag for Germany Weather past 2 weeks in Fürstenwalde/Spree, Brandenburg, Germany

Now
51 °F

Partly sunny.


Feels Like: 50 °F
Forecast: 40 / 50 °F
Wind: 3 mph from West

Location: Lindenberg

Current Time: Mar 27, 2015 at 2:17:48 PM

Latest Report: Mar 27, 2015 at 2:00 PM


Visibility: 9 mi

Pressure: 29.89 "Hg

Humidity: 61%

Dew point: 38 °F

Location of Fürstenwalde/SpreeLocation

Historic Weather in Fürstenwalde/Spree — Graph

°F

Fürstenwalde/Spree temperature yesterday

Maximum temperature yesterday: 52 °F (at 12:00 AM)
Minimum temperature yesterday: 42 °F (at 11:00 PM)
Average temperature yesterday: 47 °F

Past Weeks' High & Low Weather Summary

 TemperatureHumidityPressure
High62 °F (Mar 17, 3:00 PM)98% (Mar 27, 12:00 AM)30.50 "Hg (Mar 27, 12:00 AM)
Low28 °F (Mar 22, 7:00 AM)20% (Mar 18, 3:00 PM)29.65 "Hg (Mar 26, 5:00 AM)
Average43 °F69%30.18 "Hg
* Reported Mar 12 1:00 PM — Mar 27 1:00 PM, Fürstenwalde/Spree, Weather by CustomWeather, © 2015

Note: Actual official high and low records may vary slightly from our data, if they occured in-between our weather recording intervals... More about our weather records

Advertising

Fürstenwalde/Spree weather history for previous 24 hours

 ConditionsComfort  
Time TempWeatherWind HumidityBarometerVisibility
1:00 PM
Fri, Mar 27
49 °FPartly sunny.3 mph70%29.90 "Hg9 mi
12:00 PM48 °FOvercast.6 mph71%29.89 "Hg9 mi
11:00 AM46 °FOvercast.5 mph83%29.89 "Hg6 mi
9:00 AM43 °FFog.5 mph90%29.87 "Hg3 mi
8:00 AM42 °FFog.5 mph93%29.85 "Hg2 mi
7:00 AM41 °FOvercast.3 mph94%29.83 "Hg2 mi
6:00 AM42 °FLow clouds.2 mph97%29.81 "Hg1 mi
5:00 AM42 °FLight rain. Overcast.3 mph97%29.80 "Hg1 mi
3:00 AM41 °FFog.1 mph98%29.78 "Hg1 mi
2:00 AM42 °FOvercast.1 mph98%29.78 "Hg1 mi
1:00 AM42 °FLight rain. Overcast.1 mph98%29.78 "Hg1 mi
12:00 AM42 °FLight rain. Overcast.2 mph98%29.78 "Hg1 mi
11:00 PM
Thu, Mar 26
42 °FLight rain. Overcast.2 mph97%29.78 "Hg1 mi
10:00 PM43 °FLight rain. Overcast.2 mph95%29.78 "Hg2 mi
9:00 PM43 °FLight rain. Overcast.2 mph92%29.77 "Hg2 mi
8:00 PM45 °FLight rain. Overcast.2 mph88%29.77 "Hg3 mi
7:00 PM45 °FLight rain. Overcast.1 mph87%29.76 "Hg3 mi
6:00 PM45 °FFog.2 mph86%29.75 "Hg3 mi
5:00 PM46 °FFog.3 mph86%29.75 "Hg4 mi
3:00 PM45 °FLow clouds.6 mph90%29.73 "Hg3 mi
2:00 PM44 °FDrizzle. Low clouds.7 mph92%29.71 "Hg2 mi
Weather by CustomWeather, © 2015

See weather overviewHow to use our weather pages